Lapse_Rate
7.3 7.3 7.3 7.3 7.3 7.5 7.4 7.5 7.1 7.2 7.7 7.8 7.6 7.5 7.5 7.2 7.1 6.9 6.9 7.0 7.1 7.2 7.0 7.3 7.3 7.4 7.4 7.3 7.3 7.1 6.7 6.6 6.6 6.7 7.0 7.1 7.2 7.4 6.9 7.1 6.8 6.8 6.8 6.8 7.2 7.5 7.0 6.7 6.5 6.5 6.6 6.6 6.4 6.0
7.2 7.3 7.2 7.0 6.8 7.1 7.6 7.6 7.4 7.7 7.6 7.4 7.3 7.3 7.2 7.2 7.0 6.9 6.9 7.1 7.2 7.3 7.3 7.1 7.3 7.4 7.5 7.3 7.1 7.0 6.9 6.9 6.6 7.1 7.4 7.1 7.4 7.3 7.2 7.0 6.7 6.5 6.6 6.8 6.8 6.9 6.8 6.8 6.8 6.8 6.5 6.2 6.1 5.8
7.1 7.2 7.0 6.8 7.1 7.4 7.4 7.3 7.3 7.4 7.4 7.3 7.3 7.5 7.4 7.0 7.0 7.0 7.1 7.0 7.0 7.1 7.0 7.1 7.0 7.0 7.1 7.1 7.3 6.7 6.8 6.9 7.2 7.4 7.5 7.5 7.6 7.2 7.0 6.9 6.5 6.5 6.6 6.6 6.7 6.9 6.9 6.9 6.8 6.7 6.3 6.3 6.3 6.0
7.0 7.1 7.0 7.3 7.5 7.4 7.3 7.2 7.2 7.2 7.2 7.3 7.3 7.2 7.0 6.9 7.0 7.1 6.9 7.2 7.2 7.2 7.0 6.9 6.9 6.9 7.1 7.0 7.1 7.2 7.1 7.3 7.5 7.4 7.4 7.4 7.1 7.3 7.0 6.7 6.5 6.4 6.2 6.4 6.9 7.0 6.9 6.8 6.7 6.6 6.5 6.5 6.5 6.3
7.2 6.9 7.3 7.7 7.5 7.3 7.1 6.9 7.0 6.8 6.9 6.9 6.9 6.8 6.7 6.8 6.9 7.1 7.2 7.3 7.4 7.2 6.9 6.8 6.8 6.7 7.0 7.2 7.4 7.3 7.3 7.4 7.3 7.0 7.1 7.1 6.8 6.8 6.7 6.7 6.4 6.3 6.3 6.5 6.7 7.0 7.0 6.8 6.7 6.6 6.6 6.6 6.6 6.5
6.9 7.1 7.6 7.4 7.3 7.1 6.9 6.7 6.7 6.7 6.5 6.6 6.6 6.5 6.6 6.8 7.0 7.0 7.1 7.2 7.2 7.0 6.8 6.4 6.6 6.8 7.2 7.4 7.4 7.5 7.3 6.9 6.9 6.8 6.8 6.9 7.1 7.0 6.7 6.6 6.6 6.7 6.9 6.9 7.2 7.1 7.0 6.8 6.8 6.7 6.7 6.8 6.6 6.4
7.0 7.3 7.3 7.1 7.0 6.8 6.6 6.6 6.4 6.7 6.6 6.4 6.2 6.1 6.7 6.8 7.1 7.2 7.2 7.1 6.7 6.8 6.8 6.5 6.8 7.2 7.3 7.3 7.3 7.3 7.3 6.9 6.8 6.6 6.8 6.8 7.0 7.1 6.8 6.6 6.9 7.1 7.1 7.0 7.0 6.9 6.9 6.9 6.9 6.8 6.7 6.6 6.6 6.5
7.2 7.3 7.1 7.0 6.7 6.5 6.4 6.4 6.4 6.4 6.3 6.0 6.0 6.1 6.4 6.8 7.0 7.0 7.1 6.9 6.8 6.7 7.0 6.8 6.8 7.2 7.4 6.9 7.3 7.4 7.0 6.8 6.8 6.7 6.9 6.8 6.9 6.7 6.7 6.8 7.0 7.1 7.1 7.1 7.1 7.1 6.9 6.8 6.9 6.8 6.8 6.6 6.6 6.6
7.3 7.1 7.0 6.7 6.5 6.4 6.4 6.5 6.5 6.3 6.2 5.9 6.1 6.6 6.4 6.6 6.6 6.8 6.9 6.8 6.8 7.0 7.1 7.2 7.2 6.9 7.2 7.0 7.1 7.1 6.7 6.9 7.0 6.7 6.8 6.9 6.8 6.6 6.7 7.3 7.4 7.2 7.2 7.1 7.0 7.2 7.0 6.7 6.7 6.7 6.8 6.8 6.7 6.6
7.3 7.1 6.9 6.7 6.6 6.5 6.5 6.6 6.6 6.2 6.2 6.2 6.4 6.5 6.6 6.7 6.8 6.8 6.7 6.8 6.8 7.1 7.4 7.3 7.2 7.3 7.3 7.0 6.8 6.8 6.7 6.8 6.7 6.8 6.9 6.9 6.7 6.8 6.6 7.2 7.2 7.2 7.2 7.2 7.1 7.1 7.0 6.8 6.6 6.7 6.6 6.6 6.6 6.5
7.3 7.4 7.1 7.0 6.9 6.7 6.2 6.3 6.3 6.1 6.4 6.3 6.4 6.7 6.6 6.5 6.6 6.6 6.7 6.9 7.1 7.2 7.0 7.1 7.2 7.1 6.8 6.9 6.9 6.8 6.7 6.8 7.1 7.2 6.9 7.0 7.2 7.3 7.3 7.5 7.6 7.6 7.3 7.3 7.2 7.0 6.7 6.7 6.6 6.7 6.7 6.7 6.5 6.5
7.3 7.2 7.2 7.1 6.9 6.7 6.3 6.3 6.3 6.3 6.4 6.7 6.7 6.7 6.5 6.5 6.9 7.0 7.0 7.1 6.9 6.9 7.0 7.0 6.8 6.7 6.5 6.8 6.8 6.8 6.8 6.8 7.2 7.5 7.5 7.7 7.8 7.9 7.7 7.9 8.1 8.0 7.7 7.6 7.4 7.1 6.9 6.8 6.7 6.5 6.7 6.6 6.5 6.4
7.1 7.0 7.0 7.1 6.9 6.7 6.6 6.6 6.4 6.4 6.4 6.4 6.4 6.4 6.7 6.8 6.9 7.0 7.1 6.9 6.9 7.1 7.0 7.0 6.9 6.6 6.5 6.9 6.9 6.8 7.0 7.1 7.4 7.4 7.5 7.7 8.0 8.1 8.3 8.4 8.4 8.1 7.8 7.4 7.2 7.1 7.0 6.8 6.7 6.6 6.4 6.4 6.5 6.3
6.9 6.9 6.9 6.9 6.8 6.6 6.7 6.5 6.4 6.4 6.4 6.5 6.7 6.8 6.8 6.8 6.8 6.8 7.0 7.3 7.6 7.1 6.9 6.8 6.9 6.9 6.8 6.8 7.0 6.9 7.3 7.3 7.2 7.6 7.8 7.7 7.8 8.1 8.5 8.4 8.2 7.8 7.5 7.4 7.1 6.7 6.7 6.5 6.3 6.3 6.2 6.2 6.2 6.0
6.7 6.7 6.7 6.8 6.8 6.7 6.7 6.7 6.9 6.8 6.9 7.0 7.2 7.0 7.1 7.4 7.5 7.6 7.4 7.3 7.4 6.9 6.8 6.6 6.8 6.8 7.0 7.1 7.2 7.1 7.3 7.1 7.4 7.7 7.7 7.7 7.7 7.8 8.0 8.1 7.9 7.6 7.3 7.1 6.8 6.7 6.6 6.3 6.2 6.2 6.2 6.1 6.1 6.0
6.6 6.6 6.7 6.7 6.7 6.7 6.6 6.6 6.7 6.9 7.2 7.4 7.2 6.8 6.8 7.0 7.2 7.4 7.4 7.3 7.1 6.7 6.8 6.7 6.7 6.8 7.0 6.9 7.0 7.1 7.5 7.7 7.6 7.6 7.6 7.7 7.8 7.7 7.6 7.6 7.4 7.2 7.0 6.8 6.7 6.7 6.5 6.4 6.2 6.2 6.2 6.1 6.0 5.9
6.7 6.8 6.6 6.5 6.6 6.5 6.7 6.5 6.4 6.6 7.2 6.8 6.6 6.7 6.7 6.7 6.4 6.7 6.7 6.7 6.7 6.8 6.8 6.6 6.8 6.5 6.8 7.0 7.5 7.3 7.4 7.6 7.6 7.5 7.6 7.7 7.6 7.5 7.3 7.2 7.1 7.0 6.9 6.9 6.8 6.7 6.5 6.3 6.2 6.2 6.1 6.0 6.0 5.9
6.4 6.5 6.5 6.4 6.3 6.3 6.4 6.5 6.7 6.9 6.4 6.4 6.4 6.5 6.5 6.7 6.6 6.5 6.6 6.7 6.7 6.6 6.6 6.7 6.6 6.5 6.9 7.3 7.6 7.6 7.6 7.6 7.5 7.5 7.6 7.6 7.5 7.5 7.3 7.2 7.2 7.1 7.1 7.1 7.2 7.0 6.8 6.6 6.4 6.2 6.2 6.0 5.9 5.8
6.7 6.7 6.6 6.4 6.5 6.6 6.7 6.8 7.0 6.9 6.2 6.3 6.5 6.5 6.5 6.6 6.6 6.6 6.6 6.5 6.5 6.5 6.5 6.8 6.9 6.8 7.2 7.6 7.7 7.6 7.6 7.6 7.5 7.5 7.5 7.5 7.5 7.4 7.3 7.2 7.1 7.1 7.0 7.0 7.0 6.9 6.8 6.6 6.5 6.2 6.0 5.9 5.8 5.9
6.6 6.6 6.6 6.7 6.8 7.0 6.9 6.7 6.9 6.7 6.3 6.5 6.7 6.8 6.9 6.9 6.8 6.7 6.7 6.6 6.7 6.7 6.5 6.7 6.8 7.3 7.3 7.6 7.6 7.5 7.6 7.6 7.6 7.5 7.5 7.4 7.4 7.3 7.2 7.1 7.1 6.9 6.8 6.8 6.7 6.6 6.5 6.5 6.3 6.1 6.0 5.9 5.8 5.7
6.8 6.7 6.6 6.7 6.8 7.0 6.8 6.7 6.8 6.8 6.8 6.9 6.9 6.9 7.0 7.1 7.1 7.1 7.0 6.9 6.8 6.5 6.2 6.7 7.2 7.5 7.5 7.6 7.6 7.5 7.5 7.6 7.5 7.5 7.4 7.4 7.4 7.2 7.2 7.1 6.9 6.8 6.7 6.5 6.4 6.2 6.2 6.0 5.9 5.8 5.8 5.7 5.6 5.4
6.9 6.7 6.7 6.7 6.9 6.9 6.9 6.9 6.9 6.9 6.9 6.9 7.0 7.1 7.1 7.1 7.1 7.1 7.0 7.0 6.9 7.0 7.0 7.1 7.4 7.5 7.5 7.5 7.6 7.5 7.5 7.5 7.5 7.6 7.6 7.5 7.4 7.2 7.1 6.9 6.8 6.7 6.6 6.3 6.1 5.9 5.7 5.7 5.7 5.4 5.4 5.3 5.3 4.9
6.8 6.8 6.8 6.9 7.0 6.8 6.6 6.7 6.8 6.8 6.8 6.8 6.9 6.9 6.9 6.9 7.0 7.0 7.1 7.1 7.1 7.0 7.1 7.1 7.3 7.5 7.5 7.4 7.5 7.5 7.5 7.5 7.5 7.5 7.6 7.6 7.5 7.3 7.1 7.0 6.8 6.7 6.5 6.4 6.1 5.8 5.8 5.5 5.3 5.1 4.9 4.9 4.9 4.8
6.8 6.9 6.8 6.8 6.7 6.6 6.5 6.6 6.7 6.7 6.8 6.7 6.8 6.9 6.9 7.0 7.0 7.1 7.1 7.0 7.1 7.1 7.1 7.1 7.2 7.4 7.5 7.5 7.5 7.6 7.5 7.5 7.5 7.5 7.7 7.7 7.6 7.4 7.2 7.0 6.8 6.6 6.5 6.4 6.2 5.9 5.6 5.3 5.1 4.9 4.9 4.8 4.8 4.7
6.9 6.8 6.8 6.6 6.5 6.4 6.4 6.3 6.3 6.4 6.7 6.8 6.8 6.9 6.9 7.0 7.1 7.1 7.2 7.2 7.1 7.1 7.2 7.2 7.2 7.3 7.4 7.5 7.7 7.6 7.5 7.6 7.7 7.6 7.7 7.8 7.6 7.5 7.4 7.1 6.8 6.7 6.5 6.3 6.1 5.8 5.5 5.3 5.1 4.9 4.8 4.8 4.7 4.7
7.0 6.8 6.7 6.5 6.4 6.3 6.2 6.2 6.5 6.5 6.7 6.8 6.9 7.0 7.0 7.1 7.2 6.9 6.7 7.1 7.2 7.3 7.3 7.4 7.4 7.3 7.4 7.5 7.7 7.6 7.6 7.6 7.7 7.8 7.6 7.8 7.7 7.5 7.3 7.1 6.8 6.6 6.3 6.2 6.0 5.7 5.5 5.3 5.1 4.9 4.8 4.6 4.5 4.4
6.9 6.8 6.7 6.5 6.4 6.4 6.4 6.3 6.5 6.6 6.8 6.8 7.1 7.1 7.2 7.2 7.0 7.1 7.3 7.3 7.3 7.4 7.4 7.5 7.6 7.7 7.7 7.7 7.7 7.7 7.7 7.6 7.6 7.7 7.7 7.7 7.5 7.3 7.1 6.8 6.6 6.4 6.3 6.2 6.0 5.7 5.5 5.3 5.1 4.9 4.7 4.5 4.3 4.2
6.9 6.8 6.7 6.5 6.5 6.5 6.6 6.7 6.7 6.7 6.8 6.6 7.0 7.3 7.3 7.1 7.5 7.4 7.5 7.4 7.4 7.4 7.4 7.4 7.5 7.6 7.6 7.7 7.8 7.7 7.6 7.6 7.6 7.6 7.6 7.6 7.4 7.2 6.9 6.7 6.5 6.4 6.3 6.2 6.0 5.8 5.6 5.3 5.1 4.9 4.6 4.3 4.1 3.9
6.6 6.6 6.6 6.6 6.6 6.7 6.7 6.8 6.9 7.0 6.9 7.1 7.3 7.3 7.4 7.5 7.5 7.5 7.5 7.5 7.6 7.6 7.7 7.7 7.7 7.7 7.7 7.8 7.7 7.6 7.5 7.5 7.4 7.4 7.4 7.4 7.3 7.1 7.0 6.8 6.5 6.3 6.1 5.9 5.7 5.6 5.4 5.1 4.9 4.6 4.3 4.1 3.8 3.7
6.5 6.5 6.6 6.6 6.6 6.7 7.0 7.0 6.9 6.9 7.1 7.2 7.3 7.4 7.5 7.5 7.4 7.4 7.5 7.5 7.7 7.9 7.8 7.9 7.8 7.8 7.7 7.6 7.7 7.7 7.5 7.4 7.3 7.2 7.2 7.1 7.0 7.0 6.8 6.6 6.4 6.1 5.9 5.6 5.3 5.1 4.9 4.8 4.6 4.3 4.1 3.8 3.6 3.7
6.7 6.6 6.6 6.6 6.9 7.0 6.8 6.9 7.0 7.1 7.1 7.2 7.2 7.4 7.5 7.5 7.4 7.5 7.7 7.7 7.8 7.9 8.0 8.0 8.1 8.0 7.9 7.8 7.8 7.8 7.7 7.5 7.3 7.3 7.1 7.0 6.9 6.8 6.6 6.5 6.3 5.9 5.6 5.3 5.1 4.9 4.7 4.5 4.4 4.2 4.0 3.7 3.7 3.7
6.7 6.7 6.7 6.8 7.0 7.1 7.0 7.1 7.2 7.3 7.5 7.6 7.7 7.7 7.7 7.7 7.8 8.0 8.0 7.9 7.9 7.9 8.0 8.0 8.1 8.2 8.1 8.2 8.2 8.0 7.8 7.6 7.4 7.2 7.1 7.0 6.8 6.7 6.5 6.2 6.0 5.8 5.5 5.2 5.0 4.8 4.6 4.4 4.3 4.1 3.9 3.8 3.8 3.8
6.8 6.7 6.7 6.7 6.8 7.0 7.2 7.1 7.2 7.3 7.5 7.6 7.7 7.8 7.8 7.8 7.8 8.1 8.1 8.1 8.0 8.0 8.0 8.1 8.1 8.0 7.9 7.9 7.9 7.9 7.8 7.6 7.5 7.4 7.2 6.9 6.7 6.5 6.2 6.0 5.8 5.6 5.4 5.1 4.9 4.7 4.5 4.3 4.2 4.0 3.9 3.9 3.9 3.9
Wind_Speed
16 16 13 10 9 10 12 18 22 17 22 24 27 25 25 22 21 8 2 5 3 2 8 9 4 3 10 4 8 11 6 4 4 6 5 3 2 2 4 2 9 7 5 6 6 8 5 8 3 3 5 7 8 6
14 12 10 8 12 15 15 15 22 23 23 23 22 22 24 22 19 15 2 3 4 2 3 8 10 10 7 4 7 10 3 11 5 6 4 1 2 1 6 5 2 2 2 2 5 3 5 8 10 5 5 9 8 8
12 12 8 9 13 14 16 23 23 23 22 23 21 19 20 22 19 11 1 5 3 3 4 3 4 7 7 5 5 4 2 4 1 2 1 0 2 4 5 3 5 4 5 3 6 6 6 7 8 8 9 10 9 9
9 11 3 8 12 18 21 20 19 19 19 18 17 15 16 17 19 12 3 3 1 1 3 5 4 5 4 4 5 6 8 3 4 3 1 1 1 4 3 4 3 2 7 9 5 7 8 6 7 10 11 10 11 11
7 7 6 11 20 17 18 18 17 16 16 15 17 14 17 16 20 10 4 4 2 3 3 6 9 7 6 7 8 7 7 6 4 3 1 2 3 3 2 4 5 3 3 4 1 14 2 12 10 11 11 11 11 12
4 6 10 11 19 17 17 17 16 15 12 13 18 20 20 17 15 3 2 5 3 6 3 4 3 5 6 7 7 5 1 1 1 2 2 3 2 2 2 2 2 7 6 3 4 10 12 12 11 11 12 11 11 11
7 9 7 20 18 18 17 17 16 18 18 14 15 16 15 13 4 1 1 2 5 3 2 4 4 2 2 2 2 3 1 1 1 1 2 3 3 2 2 3 8 9 9 12 15 17 11 14 8 12 12 12 13 12
5 7 18 19 18 17 17 16 20 19 15 12 14 13 11 11 11 3 2 2 5 1 2 2 4 4 5 3 3 2 2 2 3 2 1 1 3 2 2 6 12 11 10 10 12 0 13 12 14 13 13 12 12 11
7 18 20 19 19 18 17 20 20 20 16 14 16 17 5 3 2 3 1 9 3 2 1 3 6 4 2 2 2 1 2 1 0 1 1 1 3 2 7 12 13 12 8 10 6 13 15 14 14 13 12 12 11 10
14 21 21 20 19 19 18 18 20 16 13 9 4 3 3 2 2 2 2 2 1 1 2 3 4 4 4 2 1 2 2 2 3 2 3 1 2 4 10 12 11 11 11 11 12 12 12 13 12 12 11 10 10 10
23 21 21 20 19 19 18 18 15 11 1 2 2 2 3 2 2 1 2 2 2 2 3 4 6 6 5 3 3 1 2 0 2 3 2 3 3 6 8 12 9 8 10 9 10 11 10 11 10 9 9 9 9 10
25 23 21 21 21 20 17 14 9 2 2 3 6 5 2 1 1 2 2 1 4 3 3 6 7 6 2 1 2 1 1 1 1 2 1 2 4 10 9 9 9 9 7 6 10 11 10 10 9 9 9 10 11 11
26 25 24 22 20 16 11 7 4 9 7 4 2 3 2 1 2 4 5 3 4 3 2 6 5 2 2 4 2 1 1 1 1 2 2 3 8 8 9 10 11 8 8 6 9 9 12 11 10 11 12 10 10 9
24 24 21 17 16 14 13 8 3 3 4 2 3 3 1 3 1 3 5 4 2 3 5 6 3 2 2 3 1 1 2 2 2 3 2 5 7 7 8 9 10 10 9 10 11 13 13 13 12 12 10 9 9 8
25 24 19 16 16 13 7 3 5 2 3 3 3 3 3 2 4 3 3 4 2 4 5 4 3 3 2 2 1 2 2 3 3 3 2 6 9 7 9 10 10 10 10 9 10 10 11 10 10 11 8 8 8 8
23 19 12 14 11 7 2 2 1 2 2 3 4 2 3 5 4 4 4 3 2 2 4 3 2 2 2 4 3 3 2 2 3 2 3 7 9 8 9 9 8 8 9 9 8 9 10 10 10 11 10 8 7 7
10 4 10 10 7 3 3 0 2 4 3 3 3 2 2 5 4 3 2 1 2 1 0 2 2 1 1 2 4 1 2 2 3 3 3 6 9 9 9 9 8 8 10 10 10 10 10 10 10 11 11 9 9 8
12 8 9 4 4 2 3 3 2 2 4 4 3 4 5 4 3 3 2 4 2 1 2 3 3 2 1 2 2 3 3 3 3 4 5 7 9 9 8 9 8 9 9 9 9 10 10 10 11 8 11 11 9 9
11 8 6 5 5 2 2 3 3 3 4 3 3 4 4 2 2 2 1 3 3 4 1 3 1 1 2 3 3 4 4 4 5 5 5 7 8 8 9 8 8 9 9 10 12 8 8 10 7 8 7 7 6 6
16 13 8 4 3 1 3 3 3 3 3 3 3 3 2 2 2 0 1 1 2 1 2 1 2 2 2 3 2 4 5 7 7 7 6 5 5 8 9 8 7 9 8 10 8 8 7 6 7 7 6 6 6 6
6 5 6 4 3 6 4 3 3 2 3 3 2 2 2 2 2 2 2 3 1 2 1 3 3 4 4 3 3 4 4 5 5 5 8 7 7 6 7 6 9 7 7 7 7 7 6 6 6 6 5 5 6 6
2 3 2 5 4 4 4 5 3 2 2 3 2 1 2 2 2 1 1 1 1 1 2 2 3 4 4 4 2 3 4 6 5 6 9 10 7 7 6 7 7 7 7 7 7 7 6 6 7 6 6 6 7 6
3 1 3 3 3 4 2 1 2 1 2 3 2 2 2 1 1 1 1 2 1 2 2 1 4 5 6 5 5 6 5 5 5 5 6 5 6 6 6 6 6 7 7 6 6 6 6 10 8 8 7 6 7 5
1 3 4 3 4 2 1 1 1 3 2 2 2 2 2 1 0 1 2 2 2 3 2 2 2 3 4 5 4 4 3 4 6 4 4 6 5 5 5 5 5 5 6 6 7 6 8 7 10 8 7 8 7 7
1 3 2 3 1 1 2 2 2 2 2 2 1 1 2 1 1 1 1 2 2 2 1 1 2 2 0 2 5 4 3 3 5 5 2 5 5 5 5 5 5 5 5 7 8 9 8 8 8 8 8 7 8 8
3 2 3 1 0 0 2 2 2 2 2 1 1 2 1 1 1 2 1 2 2 1 2 2 2 2 1 2 3 4 3 1 4 5 4 5 6 6 6 7 7 5 6 6 8 10 10 8 8 10 8 8 7 9
1 1 1 1 2 1 1 1 2 2 2 2 3 2 1 2 2 2 2 3 2 2 2 3 2 2 3 5 5 5 5 4 3 5 5 4 3 3 5 6 7 6 6 8 8 9 10 9 10 9 9 7 6 6
1 2 1 2 2 1 2 2 4 3 3 1 3 3 2 1 2 2 2 3 4 4 3 3 4 4 4 5 5 5 4 5 7 8 7 6 6 5 5 3 6 10 6 8 9 9 9 9 9 10 9 8 6 6
2 1 2 3 2 2 2 2 2 2 3 2 1 2 1 3 2 2 3 4 3 4 4 4 4 4 5 4 4 4 5 5 7 8 8 6 5 4 3 6 7 6 6 7 10 10 12 10 10 9 11 8 7 6
3 4 3 3 2 3 2 4 2 2 3 3 2 1 2 2 2 1 3 3 3 3 2 3 5 5 5 5 5 5 3 3 3 4 5 7 6 6 5 7 7 7 8 9 11 12 16 13 14 10 9 7 6 6
3 4 3 4 2 2 3 2 1 1 1 0 1 1 2 2 2 1 0 2 0 1 3 4 4 4 5 5 5 6 5 3 3 2 6 8 9 8 7 7 7 7 9 9 9 9 10 9 9 10 10 9 9 7
4 5 4 4 2 2 1 1 1 2 2 2 2 2 1 2 2 2 2 2 1 1 3 3 4 4 3 2 2 3 3 6 6 5 10 8 8 9 8 8 9 8 9 9 9 10 11 11 9 9 9 11 9 9
3 3 1 0 2 2 2 2 3 2 2 3 1 1 1 2 2 2 2 3 3 4 5 2 3 4 6 4 5 5 6 6 8 8 10 13 13 11 8 7 8 9 11 10 10 10 11 13 10 11 10 10 9 9
Wind_Direction
305 318 295 241 270 274 256 262 253 204 172 174 160 163 167 170 172 171 234 258 284 310 53 86 82 120 182 139 150 154 148 176 173 204 216 181 229 172 105 321 174 190 195 206 244 223 195 10 227 285 91 96 94 78
308 315 329 295 286 271 229 164 130 129 131 131 148 156 158 157 172 186 204 253 208 272 68 70 54 33 51 5 208 158 177 171 170 212 223 144 180 110 142 169 140 165 55 71 12 56 92 63 86 98 85 107 103 108
310 315 304 297 307 183 214 134 138 143 148 150 156 154 156 169 175 183 117 253 190 168 92 48 22 16 30 32 18 186 149 108 167 12 332 146 173 183 181 133 135 143 174 88 187 125 112 102 96 104 102 111 111 105
312 316 315 300 263 132 126 127 130 135 139 146 153 163 173 169 180 171 211 225 315 143 129 71 76 51 42 63 64 56 90 107 125 248 219 251 139 34 45 134 126 113 149 127 85 116 121 130 128 123 117 114 110 112
308 353 340 263 123 123 123 124 128 131 133 142 140 136 129 168 190 186 239 236 264 310 114 120 89 61 76 91 106 118 136 162 185 181 198 160 102 86 106 119 111 83 121 188 328 160 58 140 144 136 130 127 128 119
311 335 272 160 131 127 126 127 125 123 125 124 143 165 170 174 168 164 93 221 224 220 139 122 109 99 92 92 89 92 85 343 2 42 52 75 75 143 156 99 106 93 80 87 94 95 108 132 141 138 134 136 122 119
332 314 275 128 128 128 127 125 122 118 109 111 120 135 149 154 158 215 183 60 312 310 101 121 130 137 359 136 133 129 94 15 1 119 40 119 155 248 160 150 156 105 102 106 111 110 127 145 144 139 139 126 123 119
316 274 145 129 128 125 124 125 128 120 123 140 145 143 144 131 124 162 52 318 343 221 208 125 96 149 214 188 124 281 126 151 351 68 200 187 117 276 103 140 120 118 123 136 148 127 148 136 139 136 135 137 129 124
271 154 132 129 124 125 126 124 125 125 121 115 113 128 134 235 142 92 316 302 254 280 143 153 156 138 180 79 111 142 325 93 20 206 154 233 144 205 141 157 140 149 155 146 152 129 139 142 136 142 141 142 131 128
165 133 129 125 126 124 122 125 125 122 126 141 181 150 125 71 311 236 192 104 352 343 305 149 96 130 146 162 52 110 320 170 171 164 86 291 82 125 141 150 139 166 147 159 141 147 145 145 147 150 149 142 135 133
122 127 122 118 120 122 123 120 121 126 54 200 86 74 93 128 223 80 130 171 160 165 169 109 136 130 160 158 152 44 167 127 244 128 226 184 183 138 118 142 143 141 152 159 159 146 147 145 142 144 136 120 123 126
137 134 132 125 120 119 119 123 131 211 49 64 95 111 150 136 148 123 141 147 236 134 169 152 145 122 110 102 91 223 182 203 289 193 238 234 102 121 130 126 131 128 131 142 141 143 139 135 126 114 110 105 92 96
125 123 118 117 118 115 106 99 96 107 152 166 151 81 157 74 156 197 163 196 132 139 198 124 107 123 146 62 37 100 81 152 254 197 218 62 130 117 124 122 122 118 99 121 124 114 113 107 104 108 97 102 107 108
123 120 117 111 111 109 104 94 55 271 265 92 119 103 289 156 142 26 37 77 82 151 132 99 54 67 83 56 291 145 79 237 249 236 105 143 139 127 126 127 124 119 105 106 104 100 100 97 94 98 107 113 119 118
121 122 123 115 114 108 105 79 312 269 38 49 28 66 68 76 64 71 98 110 17 124 120 133 146 101 98 109 140 82 173 227 238 34 63 127 123 115 119 118 112 115 116 115 114 111 108 110 112 111 111 122 114 122
118 117 109 113 112 102 56 281 114 57 44 60 37 108 133 112 106 94 83 71 13 161 149 116 159 102 162 142 171 210 269 17 72 67 100 121 121 116 119 116 117 123 128 126 120 121 122 124 130 129 115 118 125 123
111 114 123 111 115 135 301 266 56 46 45 39 61 317 54 67 64 67 87 120 230 164 94 114 97 84 169 216 170 115 24 70 112 102 102 127 134 126 122 122 125 124 127 130 129 130 130 123 118 130 132 143 140 136
108 117 100 64 307 143 47 51 73 77 61 43 70 51 48 50 74 54 5 354 325 76 23 47 336 68 213 202 103 88 108 90 86 115 113 113 114 120 125 131 132 133 131 132 133 136 130 148 150 144 142 147 137 140
111 103 67 13 347 335 83 57 21 78 62 77 79 82 82 88 78 80 45 319 338 34 101 152 135 189 68 57 89 100 132 143 132 112 101 111 127 133 132 135 134 133 138 145 151 152 160 165 149 143 149 152 147 157
89 54 14 333 296 80 73 66 24 67 82 75 66 49 41 50 83 308 280 4 18 344 205 176 44 48 43 42 35 108 135 118 129 131 128 127 130 138 144 152 149 147 150 156 153 151 160 149 133 146 156 171 156 156
103 14 333 334 43 41 51 82 69 87 92 68 116 126 90 84 50 25 44 6 327 275 66 70 98 91 52 10 73 117 129 147 160 161 162 159 164 152 163 151 141 162 158 162 154 163 162 143 143 142 139 114 115 99
75 290 9 23 43 53 56 21 84 84 67 103 141 45 110 121 128 153 84 199 242 22 38 33 93 145 151 137 120 107 128 87 91 95 116 134 162 156 167 151 169 167 165 162 164 156 157 147 132 138 127 117 111 107
290 10 34 36 70 50 50 307 85 13 103 124 157 127 124 123 54 218 241 232 148 51 33 58 86 63 103 116 113 119 143 152 134 115 136 154 151 151 153 159 177 166 163 167 156 161 146 135 139 128 127 129 116 119
58 45 33 37 37 82 279 27 127 101 108 180 134 127 95 107 44 228 261 103 87 147 138 148 233 155 149 159 160 139 163 102 100 130 139 131 137 148 153 163 169 169 165 157 152 144 141 137 132 136 144 143 145 156
32 28 357 67 323 129 116 119 334 92 123 163 113 101 111 162 242 230 252 109 93 87 134 184 216 290 319 77 84 94 314 154 146 152 140 148 142 145 152 161 162 168 163 153 151 144 141 143 141 150 161 160 155 148
66 24 2 59 307 296 132 138 157 190 110 131 113 58 135 240 237 238 76 67 61 158 152 179 195 192 168 66 139 145 153 149 127 141 158 145 158 162 164 162 165 163 166 156 146 149 149 151 156 152 159 146 131 134
116 105 120 12 339 53 44 353 76 126 174 196 143 170 195 243 207 93 115 43 89 81 105 71 38 45 120 110 94 81 76 50 60 113 91 92 108 155 165 168 170 149 144 146 146 146 151 159 148 146 127 127 134 137
32 182 170 167 188 263 281 198 179 198 210 164 133 193 217 290 38 76 81 110 121 126 117 79 56 57 93 106 103 101 96 95 89 93 89 74 62 61 76 108 128 130 131 145 144 144 148 144 139 136 139 138 124 125
189 136 163 192 239 188 240 233 224 149 6 124 187 200 173 58 56 101 129 139 138 149 142 143 117 107 103 104 125 138 154 159 153 157 157 146 139 104 95 115 118 114 115 113 114 124 132 131 131 125 119 117 110 111
162 160 205 174 219 236 84 7 49 27 1 25 324 247 167 100 87 75 141 157 177 183 155 148 150 169 162 164 155 158 183 202 210 201 183 166 155 134 136 119 115 110 107 104 100 98 97 101 104 109 114 118 121 126
108 178 209 210 220 80 58 10 319 273 305 321 28 281 357 44 125 60 6 7 86 137 164 179 177 205 180 179 170 173 171 159 93 68 97 115 133 135 133 130 127 118 115 120 122 119 123 123 129 136 145 144 136 138
187 196 206 210 167 111 163 241 258 254 200 237 212 184 245 236 236 111 33 332 257 218 223 242 200 191 188 153 142 130 157 146 157 130 133 132 131 133 130 126 123 127 134 138 133 142 143 139 145 138 131 143 142 129
209 190 200 144 193 215 170 223 214 222 194 234 215 35 7 334 345 88 97 20 12 13 15 62 57 106 121 109 112 103 127 126 134 139 128 127 128 126 124 127 131 135 134 133 139 138 138 133 133 139 135 130 132 135